Location: Cicognara
(44.9500°N, 10.4667°E)
Time: 22:08:18
(UTC+00:00)

SJ 16-02 - Pass Details

Date: 20 June 2021
Orbit: 606 x 616 km, 75.0° (Epoch: 23 July)

Event Time Altitude Azimuth Distance (km) Brightness Sun altitude
Rises 21:32:17 0° 357° (N) 2,875 6.0 -17.3°
Reaches altitude 10° 21:35:54 10° 28° (NNE) 1,965 4.4 -17.6°
Maximum altitude 21:37:42 12° 52° (NE) 1,815 3.9 -17.7°
Drops below altitude 10° 21:39:31 10° 77° (ENE) 1,959 3.8 -17.9°
Enters shadow 21:40:32 - 88° (E) 2,153 3.9 -18.0°
